Total_Precipitation_Accumulation
1.49 1.45 1.47 1.44 1.37 1.26 1.18 1.12 1.07 1.02 0.98 0.94 0.94 0.92 0.90 0.89 0.88 0.90 0.87 0.88 0.94 0.95 0.95 0.93 0.91 0.91 0.97 0.96 1.01 1.12 1.26 1.42 1.56 1.44 1.24 1.12 1.08 1.12 1.18 1.09 1.06 1.00 0.93
1.24 1.29 1.34 1.28 1.24 1.18 1.12 1.07 1.03 0.93 0.87 0.85 0.86 0.82 0.75 0.72 0.77 0.83 0.86 0.85 0.94 0.94 0.92 0.92 0.88 0.88 0.93 0.93 0.95 1.01 1.14 1.31 1.46 1.52 1.35 1.21 1.11 1.06 1.08 1.04 0.88 0.83 0.85
1.00 1.00 1.07 1.08 1.07 1.04 0.97 0.92 0.88 0.85 0.83 0.81 0.75 0.73 0.72 0.68 0.69 0.70 0.72 0.74 0.80 0.86 0.87 0.92 0.93 0.93 0.91 0.90 0.93 1.00 1.12 1.25 1.40 1.45 1.37 1.27 1.21 1.13 1.16 1.08 0.96 1.03 0.90
0.87 0.90 0.95 0.95 0.97 1.00 0.93 0.86 0.82 0.77 0.74 0.72 0.65 0.63 0.69 0.68 0.62 0.59 0.60 0.65 0.70 0.71 0.72 0.85 0.91 0.92 0.92 0.98 1.00 1.04 1.11 1.27 1.36 1.40 1.33 1.25 1.21 1.21 1.26 1.27 1.21 1.16 1.06
0.84 0.88 0.96 0.91 0.88 0.95 0.98 0.88 0.79 0.75 0.71 0.71 0.65 0.60 0.63 0.63 0.57 0.57 0.57 0.57 0.61 0.61 0.63 0.71 0.78 0.80 0.81 0.87 0.89 0.98 1.11 1.26 1.33 1.38 1.33 1.27 1.20 1.28 1.32 1.27 1.22 1.23 1.11
0.79 0.89 0.97 0.97 0.95 0.96 1.00 0.96 0.89 0.82 0.79 0.75 0.69 0.64 0.62 0.59 0.60 0.54 0.52 0.53 0.57 0.63 0.70 0.72 0.68 0.68 0.66 0.64 0.71 0.81 0.97 1.17 1.33 1.39 1.35 1.32 1.25 1.28 1.37 1.36 1.33 1.35 1.34
0.84 0.86 0.93 0.96 1.01 1.01 0.99 0.97 0.95 0.92 0.90 0.80 0.70 0.66 0.63 0.56 0.51 0.42 0.41 0.46 0.58 0.68 0.76 0.74 0.64 0.61 0.70 0.71 0.71 0.74 0.85 0.99 1.20 1.41 1.46 1.34 1.30 1.31 1.44 1.50 1.43 1.42 1.40
0.89 0.86 0.82 0.82 0.85 0.84 0.89 0.96 0.94 0.90 0.84 0.78 0.70 0.64 0.60 0.46 0.39 0.37 0.40 0.42 0.50 0.54 0.58 0.66 0.76 0.78 0.71 0.72 0.71 0.81 0.90 1.00 1.09 1.21 1.38 1.31 1.24 1.30 1.39 1.43 1.38 1.33 1.25
0.83 0.78 0.70 0.66 0.69 0.70 0.77 0.87 0.94 0.89 0.79 0.72 0.66 0.63 0.59 0.47 0.40 0.38 0.39 0.44 0.48 0.45 0.42 0.48 0.55 0.59 0.59 0.67 0.77 0.92 0.98 1.09 1.11 1.27 1.29 1.23 1.22 1.23 1.17 1.21 1.40 1.50 1.40
0.71 0.64 0.59 0.58 0.61 0.64 0.69 0.79 0.85 0.85 0.74 0.62 0.55 0.55 0.52 0.50 0.42 0.35 0.35 0.38 0.45 0.43 0.45 0.52 0.52 0.46 0.49 0.62 0.80 0.99 1.13 1.18 1.27 1.45 1.43 1.40 1.29 1.22 1.12 1.15 1.42 1.61 1.56
0.55 0.54 0.56 0.59 0.62 0.61 0.69 0.77 0.74 0.68 0.67 0.60 0.55 0.52 0.47 0.40 0.33 0.28 0.29 0.32 0.37 0.42 0.48 0.56 0.59 0.51 0.47 0.53 0.71 0.90 1.07 1.10 1.32 1.57 1.47 1.31 1.25 1.20 1.16 1.17 1.29 1.38 1.35
0.52 0.56 0.60 0.60 0.58 0.56 0.67 0.74 0.66 0.64 0.63 0.61 0.59 0.52 0.44 0.35 0.28 0.22 0.19 0.20 0.24 0.41 0.56 0.55 0.54 0.52 0.49 0.55 0.70 0.87 1.00 1.16 1.36 1.46 1.27 1.11 1.02 0.99 1.03 0.99 0.97 0.98 1.02
0.52 0.60 0.62 0.59 0.66 0.65 0.61 0.60 0.59 0.62 0.54 0.49 0.49 0.46 0.42 0.37 0.31 0.23 0.18 0.17 0.21 0.33 0.49 0.53 0.51 0.49 0.60 0.80 0.92 1.01 1.15 1.36 1.42 1.28 1.13 1.01 0.88 0.85 0.82 0.83 0.83 0.86 0.86
0.56 0.58 0.56 0.60 0.71 0.70 0.59 0.48 0.46 0.47 0.44 0.40 0.42 0.40 0.40 0.40 0.31 0.26 0.26 0.26 0.28 0.33 0.44 0.57 0.62 0.66 0.84 1.04 1.19 1.27 1.36 1.41 1.28 1.15 1.05 0.92 0.78 0.78 0.78 0.76 0.83 0.85 0.89
0.51 0.54 0.54 0.57 0.62 0.64 0.53 0.40 0.38 0.33 0.27 0.27 0.29 0.31 0.36 0.35 0.25 0.23 0.26 0.28 0.31 0.35 0.42 0.61 0.75 0.80 0.93 1.09 1.23 1.31 1.35 1.34 1.25 1.13 1.02 0.92 0.84 0.80 0.78 0.72 0.77 0.78 0.82
0.49 0.46 0.41 0.44 0.46 0.45 0.45 0.42 0.28 0.17 0.13 0.12 0.13 0.17 0.19 0.20 0.17 0.17 0.21 0.26 0.30 0.37 0.49 0.74 0.84 0.83 0.89 0.99 1.11 1.22 1.21 1.17 1.11 1.09 1.06 1.02 0.94 0.82 0.79 0.76 0.74 0.77 0.83
0.44 0.43 0.35 0.33 0.35 0.35 0.37 0.43 0.39 0.24 0.12 0.09 0.08 0.11 0.13 0.13 0.15 0.17 0.19 0.24 0.29 0.39 0.56 0.76 0.85 0.90 0.93 0.96 0.99 1.04 1.10 1.10 1.03 1.00 0.99 0.94 0.86 0.79 0.77 0.77 0.75 0.77 0.77
0.31 0.28 0.28 0.33 0.32 0.30 0.29 0.29 0.32 0.37 0.33 0.25 0.16 0.12 0.13 0.15 0.18 0.18 0.21 0.26 0.33 0.38 0.56 0.73 0.84 0.89 0.93 0.96 0.95 0.93 0.97 1.00 0.95 0.87 0.86 0.84 0.79 0.77 0.76 0.75 0.73 0.68 0.65
0.28 0.25 0.25 0.27 0.27 0.24 0.22 0.22 0.24 0.29 0.31 0.32 0.28 0.21 0.18 0.20 0.22 0.22 0.26 0.33 0.41 0.43 0.50 0.62 0.73 0.81 0.81 0.82 0.85 0.86 0.89 0.93 0.87 0.83 0.84 0.83 0.81 0.76 0.71 0.62 0.55 0.46 0.48
0.17 0.16 0.19 0.23 0.21 0.19 0.18 0.20 0.21 0.26 0.29 0.29 0.31 0.28 0.24 0.33 0.42 0.39 0.35 0.39 0.42 0.42 0.46 0.57 0.67 0.69 0.69 0.65 0.66 0.69 0.72 0.73 0.75 0.77 0.78 0.75 0.70 0.65 0.57 0.50 0.47 0.46 0.48
0.13 0.15 0.17 0.17 0.16 0.15 0.15 0.14 0.15 0.20 0.24 0.27 0.24 0.21 0.30 0.38 0.47 0.46 0.44 0.48 0.50 0.48 0.48 0.52 0.56 0.59 0.59 0.57 0.54 0.53 0.55 0.59 0.62 0.65 0.68 0.67 0.61 0.54 0.48 0.42 0.39 0.37 0.37
0.13 0.15 0.16 0.14 0.14 0.13 0.13 0.13 0.13 0.15 0.18 0.23 0.22 0.19 0.28 0.34 0.40 0.43 0.46 0.51 0.54 0.53 0.50 0.51 0.53 0.54 0.54 0.52 0.48 0.47 0.47 0.51 0.52 0.55 0.57 0.54 0.50 0.45 0.38 0.33 0.31 0.30 0.31
0.13 0.14 0.14 0.13 0.11 0.11 0.11 0.12 0.12 0.14 0.15 0.18 0.19 0.21 0.26 0.33 0.38 0.45 0.52 0.56 0.56 0.57 0.53 0.49 0.55 0.58 0.51 0.45 0.41 0.39 0.39 0.39 0.39 0.43 0.52 0.53 0.46 0.39 0.34 0.29 0.26 0.25 0.25
0.12 0.12 0.13 0.14 0.13 0.11 0.11 0.10 0.09 0.10 0.12 0.13 0.16 0.18 0.22 0.27 0.32 0.39 0.47 0.53 0.58 0.59 0.57 0.58 0.63 0.58 0.47 0.41 0.37 0.34 0.35 0.37 0.36 0.37 0.40 0.44 0.40 0.32 0.27 0.25 0.23 0.23 0.24
0.11 0.11 0.11 0.11 0.11 0.11 0.10 0.09 0.08 0.09 0.10 0.11 0.12 0.14 0.17 0.20 0.23 0.28 0.36 0.41 0.44 0.48 0.49 0.53 0.54 0.46 0.39 0.35 0.32 0.32 0.36 0.34 0.31 0.33 0.38 0.42 0.36 0.30 0.26 0.23 0.23 0.23 0.23
0.08 0.08 0.09 0.08 0.07 0.07 0.08 0.08 0.08 0.08 0.10 0.10 0.10 0.13 0.16 0.18 0.21 0.25 0.28 0.30 0.32 0.36 0.39 0.44 0.43 0.36 0.29 0.26 0.26 0.25 0.22 0.18 0.17 0.21 0.31 0.35 0.31 0.27 0.27 0.25 0.20 0.23 0.26